,,Stat6,,Stat2,,Stat8,,Stat9,,Stat10,,Wind1,,Wind1,
time,status,PA1M_AVG,status,PR1M_SUM,status,RH1M_AVG,status,SR1M_AVG,status,TA1M_AVG,status,W1dAve1m,status,W1sAve1m,
2006-02-28, 00:00:00,VALID,918.584,VALID,0,VALID,90.8485,VALID,-0.0339617,VALID,18.9071,VALID,25,VALID,0.248095,
2006-02-28, 00:01:00,VALID,918.573,VALID,0,VALID,91.4131,VALID,-0.0509425,VALID,18.8353,VALID,25,VALID,0.191134,
2006-02-28, 00:02:00,VALID,918.559,VALID,0,VALID,91.6051,VALID,-0.0679233,VALID,18.797,VALID,25,VALID,0,
2006-02-28, 00:03:00,VALID,918.534,VALID,0,VALID,91.82,VALID,-0.0509425,VALID,18.7843,VALID,25,VALID,0.198475,
2006-02-28, 00:04:00,VALID,918.541,VALID,0,VALID,91.8798,VALID,0,VALID,18.7675,VALID,25,VALID,0,
2006-02-28, 00:05:00,VALID,918.522,VALID,0,VALID,91.9599,VALID,-0.0509425,VALID,18.752,VALID,30,VALID,0.251143,
2006-02-28, 00:06:00,VALID,918.517,VALID,0,VALID,91.9205,VALID,-0.0509425,VALID,18.7548,VALID,123,VALID,0.466704,
2006-02-28, 00:07:00,VALID,918.513,VALID,0,VALID,91.9383,VALID,-0.0169808,VALID,18.7518,VALID,133,VALID,0.319404,
2006-02-28, 00:08:00,VALID,918.497,VALID,0,VALID,91.8836,VALID,-0.0679233,VALID,18.7192,VALID,98,VALID,0.363186,
2006-02-28, 00:09:00,VALID,918.489,VALID,0,VALID,92.1837,VALID,-0.0509425,VALID,18.668,VALID,80,VALID,0.258956,
2006-02-28, 00:10:00,VALID,918.463,VALID,0,VALID,92.3427,VALID,-0.0169808,VALID,18.668,VALID,77,VALID,0.184832,
2006-02-28, 00:11:00,VALID,918.443,VALID,0,VALID,92.3605,VALID,-0.0679233,VALID,18.6809,VALID,70,VALID,0.190476,
2006-02-28, 00:12:00,VALID,918.423,VALID,0,VALID,92.1557,VALID,-0.0509425,VALID,18.7232,VALID,80,VALID,0.259766,
2006-02-28, 00:13:00,VALID,918.394,VALID,0,VALID,92.0387,VALID,-0.0679233,VALID,18.7684,VALID,98,VALID,0.0255682,
2006-02-28, 00:14:00,VALID,918.381,VALID,0,VALID,91.9103,VALID,-0.0679233,VALID,18.794,VALID,56,VALID,0.248183,
2006-02-28, 00:15:00,VALID,918.353,VALID,0,VALID,91.8429,VALID,-0.0509425,VALID,18.8007,VALID,52,VALID,0.111133,
2006-02-28, 00:16:00,VALID,918.337,VALID,0,VALID,91.8378,VALID,-0.0509425,VALID,18.8164,VALID,52,VALID,0.403587,
2006-02-28, 00:17:00,VALID,918.355,VALID,0,VALID,91.8734,VALID,-0.0339617,VALID,18.8259,VALID,50,VALID,0.0823864,
2006-02-28, 00:18:00,VALID,918.351,VALID,0,VALID,91.8544,VALID,-0.0339617,VALID,18.8231,VALID,59,VALID,0.209263,
2006-02-28, 00:19:00,VALID,918.368,VALID,0,VALID,91.8124,VALID,-0.0509425,VALID,18.833,VALID,73,VALID,0.225142,
2006-02-28, 00:20:00,VALID,918.376,VALID,0,VALID,91.848,VALID,-0.0339617,VALID,18.8167,VALID,71,VALID,0.302144,
2006-02-28, 00:21:00,VALID,918.377,VALID,0,VALID,92.0311,VALID,-0.0509425,VALID,18.7878,VALID,67,VALID,0.0154433,
2006-02-28, 00:22:00,VALID,918.365,VALID,0,VALID,92.2829,VALID,-0.0509425,VALID,18.7645,VALID,67,VALID,0.11582,
2006-02-28, 00:23:00,VALID,918.33,VALID,0,VALID,92.2676,VALID,-0.0679233,VALID,18.7786,VALID,67,VALID,0.129167,
2006-02-28, 00:24:00,VALID,918.328,VALID,0,VALID,92.2066,VALID,-0.0169808,VALID,18.7878,VALID,70,VALID,0.184338,
2006-02-28, 00:25:00,VALID,918.352,VALID,0,VALID,92.1532,VALID,0.0169808,VALID,18.7906,VALID,160,VALID,0.493862,
2006-02-28, 00:26:00,VALID,918.358,VALID,0,VALID,92.0871,VALID,0,VALID,18.8035,VALID,166,VALID,0.437318,
2006-02-28, 00:27:00,VALID,918.318,VALID,0,VALID,92.0209,VALID,-0.0509425,VALID,18.8358,VALID,160,VALID,0.368862,
2006-02-28, 00:28:00,VALID,918.293,VALID,0,VALID,91.6623,VALID,-0.0339617,VALID,18.8977,VALID,197,VALID,0.544643,
2006-02-28, 00:29:00,VALID,918.264,VALID,0,VALID,91.3839,VALID,-0.0509425,VALID,18.9623,VALID,237,VALID,0.229911,
2006-02-28, 00:30:00,VALID,918.269,VALID,0,VALID,90.996,VALID,-0.0339617,VALID,18.969,VALID,237,VALID,0.00483631,
2006-02-28, 00:31:00,VALID,918.294,VALID,0,VALID,91.1562,VALID,-0.0509425,VALID,18.9263,VALID,237,VALID,0,
2006-02-28, 00:32:00,VALID,918.302,VALID,0,VALID,91.1435,VALID,-0.0339617,VALID,18.8427,VALID,237,VALID,0.0291193,
2006-02-28, 00:33:00,VALID,918.288,VALID,0,VALID,91.9345,VALID,-0.0679233,VALID,18.7816,VALID,237,VALID,0.127668,
2006-02-28, 00:34:00,VALID,918.298,VALID,0,VALID,92.2473,VALID,-0.0509425,VALID,18.7553,VALID,237,VALID,0.149479,
2006-02-28, 00:35:00,VALID,918.308,VALID,0,VALID,92.4863,VALID,-0.0679233,VALID,18.7363,VALID,209,VALID,0.100291,
2006-02-28, 00:36:00,VALID,918.306,VALID,0,VALID,92.5499,VALID,-0.0509425,VALID,18.7202,VALID,177,VALID,0.00145349,
2006-02-28, 00:37:00,VALID,918.276,VALID,0,VALID,92.4495,VALID,-0.0849042,VALID,18.7366,VALID,94,VALID,0.0933949,
2006-02-28, 00:38:00,VALID,918.253,VALID,0,VALID,92.4495,VALID,-0.0509425,VALID,18.704,VALID,69,VALID,0.0900213,
2006-02-28, 00:39:00,VALID,918.267,VALID,0,VALID,92.8513,VALID,-0.0509425,VALID,18.7008,VALID,69,VALID,0.200781,
2006-02-28, 00:40:00,VALID,918.271,VALID,0,VALID,92.8869,VALID,-0.0849042,VALID,18.7008,VALID,69,VALID,0.251302,
2006-02-28, 00:41:00,VALID,918.265,VALID,0,VALID,92.7076,VALID,-0.0339617,VALID,18.7103,VALID,114,VALID,0.385298,
2006-02-28, 00:42:00,VALID,918.261,VALID,0,VALID,92.9339,VALID,-0.0339617,VALID,18.6943,VALID,144,VALID,0.219769,
2006-02-28, 00:43:00,VALID,918.275,VALID,0,VALID,92.9924,VALID,-0.0509425,VALID,18.7038,VALID,138,VALID,0.327943,
2006-02-28, 00:44:00,VALID,918.267,VALID,0,VALID,92.9772,VALID,-0.0509425,VALID,18.6943,VALID,133,VALID,0.0559593,
2006-02-28, 00:45:00,VALID,918.256,VALID,0,VALID,92.6707,VALID,-0.0679233,VALID,18.6786,VALID,110,VALID,0.0252131,
2006-02-28, 00:46:00,VALID,918.258,VALID,0,VALID,92.8411,VALID,-0.118866,VALID,18.6392,VALID,110,VALID,0,
2006-02-28, 00:47:00,VALID,918.242,VALID,0,VALID,93.0039,VALID,-0.0679233,VALID,18.6431,VALID,110,VALID,0,
2006-02-28, 00:48:00,VALID,918.219,VALID,0,VALID,93.0675,VALID,-0.0169808,VALID,18.6332,VALID,110,VALID,0.0499238,
2006-02-28, 00:49:00,VALID,918.201,VALID,0,VALID,93.2544,VALID,-0.0509425,VALID,18.6103,VALID,110,VALID,0.173921,
2006-02-28, 00:50:00,VALID,918.202,VALID,0,VALID,93.6829,VALID,-0.0339617,VALID,18.5946,VALID,110,VALID,0.111979,
2006-02-28, 00:51:00,VALID,918.204,VALID,0,VALID,93.847,VALID,-0.0509425,VALID,18.6265,VALID,110,VALID,0.121185,
2006-02-28, 00:52:00,VALID,918.18,VALID,0,VALID,93.7312,VALID,-0.0169808,VALID,18.6496,VALID,110,VALID,0.155692,
2006-02-28, 00:53:00,VALID,918.184,VALID,0,VALID,93.6511,VALID,-0.0679233,VALID,18.6913,VALID,110,VALID,0.159702,
2006-02-28, 00:54:00,VALID,918.213,VALID,0,VALID,93.3905,VALID,-0.0509425,VALID,18.7167,VALID,110,VALID,0,
2006-02-28, 00:55:00,VALID,918.194,VALID,0,VALID,93.2964,VALID,-0.101885,VALID,18.7301,VALID,110,VALID,0,
2006-02-28, 00:56:00,VALID,918.169,VALID,0,VALID,93.351,VALID,-0.0679233,VALID,18.753,VALID,110,VALID,0.056108,
2006-02-28, 00:57:00,VALID,918.168,VALID,0,VALID,93.393,VALID,-0.0679233,VALID,18.7629,VALID,110,VALID,0.196075,
2006-02-28, 00:58:00,VALID,918.157,VALID,0,VALID,93.3676,VALID,-0.0849042,VALID,18.7719,VALID,110,VALID,0.0830793,
2006-02-28, 00:59:00,VALID,918.151,VALID,0,VALID,93.1311,VALID,-0.0679233,VALID,18.7783,VALID,110,VALID,0,
2006-02-28, 01:00:00,VALID,918.125,VALID,0,VALID,93.1298,VALID,-0.0509425,VALID,18.7523,VALID,110,VALID,0.165777,
2006-02-28, 01:01:00,VALID,918.107,VALID,0,VALID,93.3002,VALID,-0.101885,VALID,18.7428,VALID,110,VALID,0.276708,
2006-02-28, 01:02:00,VALID,918.099,VALID,0,VALID,93.4439,VALID,-0.0169808,VALID,18.7405,VALID,110,VALID,0,
2006-02-28, 01:03:00,VALID,918.071,VALID,0,VALID,93.6346,VALID,-0.0679233,VALID,18.7271,VALID,110,VALID,0.23457,
2006-02-28, 01:04:00,VALID,918.063,VALID,0,VALID,93.557,VALID,-0.0339617,VALID,18.7202,VALID,109,VALID,0.10992,
2006-02-28, 01:05:00,VALID,918.055,VALID,0,VALID,93.3727,VALID,-0.0679233,VALID,18.6814,VALID,58,VALID,0.440505,
2006-02-28, 01:06:00,VALID,918.051,VALID,0,VALID,93.5024,VALID,-0.0169808,VALID,18.6436,VALID,56,VALID,0.0304688,
2006-02-28, 01:07:00,VALID,918.033,VALID,0,VALID,93.8953,VALID,-0.0509425,VALID,18.6205,VALID,56,VALID,0.259673,
2006-02-28, 01:08:00,VALID,918.013,VALID,0,VALID,94.0199,VALID,-0.0339617,VALID,18.6202,VALID,56,VALID,0,
2006-02-28, 01:09:00,VALID,917.985,VALID,0,VALID,94.1483,VALID,-0.0679233,VALID,18.6066,VALID,56,VALID,0.046875,
2006-02-28, 01:10:00,VALID,917.946,VALID,0,VALID,94.498,VALID,-0.0169808,VALID,18.6299,VALID,56,VALID,0.394176,
2006-02-28, 01:11:00,VALID,917.93,VALID,0,VALID,94.4001,VALID,-0.0679233,VALID,18.6623,VALID,56,VALID,0.130087,
2006-02-28, 01:12:00,VALID,917.911,VALID,0,VALID,94.2653,VALID,-0.0509425,VALID,18.6784,VALID,62,VALID,0.185724,
2006-02-28, 01:13:00,VALID,917.895,VALID,0,VALID,94.3467,VALID,-0.0509425,VALID,18.6916,VALID,66,VALID,0.0223214,
2006-02-28, 01:14:00,VALID,917.885,VALID,0,VALID,94.2895,VALID,-0.0679233,VALID,18.6971,VALID,66,VALID,0.0337891,
2006-02-28, 01:15:00,VALID,917.892,VALID,0,VALID,94.3518,VALID,0,VALID,18.71,VALID,66,VALID,0.0241815,
2006-02-28, 01:16:00,VALID,917.881,VALID,0,VALID,94.3556,VALID,-0.0509425,VALID,18.7202,VALID,66,VALID,0.0865234,
2006-02-28, 01:17:00,VALID,917.873,VALID,0,VALID,94.3912,VALID,-0.0339617,VALID,18.7497,VALID,66,VALID,0.169398,
2006-02-28, 01:18:00,VALID,917.869,VALID,0,VALID,94.1776,VALID,-0.0339617,VALID,18.7518,VALID,66,VALID,0.0806686,
2006-02-28, 01:19:00,VALID,917.854,VALID,0,VALID,93.543,VALID,0,VALID,18.7361,VALID,66,VALID,0.00837054,
2006-02-28, 01:20:00,VALID,917.821,VALID,0,VALID,93.6766,VALID,-0.0509425,VALID,18.662,VALID,66,VALID,0.0385417,
2006-02-28, 01:21:00,VALID,917.782,VALID,0,VALID,94.3353,VALID,-0.0509425,VALID,18.62,VALID,66,VALID,0,
2006-02-28, 01:22:00,VALID,917.762,VALID,0,VALID,94.6989,VALID,-0.0339617,VALID,18.6297,VALID,66,VALID,0.209872,
2006-02-28, 01:23:00,VALID,917.748,VALID,0,VALID,94.8833,VALID,-0.0339617,VALID,18.6491,VALID,66,VALID,0.247024,
2006-02-28, 01:24:00,VALID,917.729,VALID,0,VALID,94.5184,VALID,-0.0849042,VALID,18.6851,VALID,66,VALID,0.0614099,
2006-02-28, 01:25:00,VALID,917.721,VALID,0,VALID,94.4993,VALID,-0.101885,VALID,18.6595,VALID,66,VALID,0,
2006-02-28, 01:26:00,VALID,917.722,VALID,0,VALID,94.156,VALID,-0.0679233,VALID,18.6202,VALID,66,VALID,0,
2006-02-28, 01:27:00,VALID,917.704,VALID,0,VALID,94.5514,VALID,-0.0679233,VALID,18.578,VALID,66,VALID,0,
2006-02-28, 01:28:00,VALID,917.684,VALID,0,VALID,95.0359,VALID,-0.0679233,VALID,18.5946,VALID,66,VALID,0.177827,
2006-02-28, 01:29:00,VALID,917.659,VALID,0,VALID,94.9049,VALID,-0.0849042,VALID,18.6304,VALID,66,VALID,0.244727,
2006-02-28, 01:30:00,VALID,917.656,VALID,0,VALID,94.7663,VALID,-0.0679233,VALID,18.617,VALID,43,VALID,0.564787,
2006-02-28, 01:31:00,VALID,917.663,VALID,0,VALID,94.8528,VALID,-0.0679233,VALID,18.6075,VALID,97,VALID,0.0475694,
2006-02-28, 01:32:00,VALID,917.671,VALID,0,VALID,95.0143,VALID,-0.0849042,VALID,18.6013,VALID,96,VALID,0.194618,
2006-02-28, 01:33:00,VALID,917.653,VALID,0,VALID,94.9914,VALID,-0.0339617,VALID,18.6011,VALID,91,VALID,0.078125,
2006-02-28, 01:34:00,VALID,917.598,VALID,0,VALID,95.2724,VALID,-0.0339617,VALID,18.6041,VALID,82,VALID,0.35,
2006-02-28, 01:35:00,VALID,917.57,VALID,0,VALID,95.289,VALID,-0.0339617,VALID,18.6364,VALID,78,VALID,0.1633,
2006-02-28, 01:36:00,VALID,917.563,VALID,0,VALID,95.2546,VALID,-0.0849042,VALID,18.6752,VALID,33,VALID,0.282012,
2006-02-28, 01:37:00,VALID,917.564,VALID,0,VALID,94.9812,VALID,-0.0509425,VALID,18.7006,VALID,30,VALID,0.340661,
2006-02-28, 01:38:00,VALID,917.546,VALID,0,VALID,94.8922,VALID,-0.0509425,VALID,18.7296,VALID,30,VALID,0.0965402,
2006-02-28, 01:39:00,VALID,917.523,VALID,0,VALID,94.7905,VALID,-0.0339617,VALID,18.7493,VALID,30,VALID,0.329861,
2006-02-28, 01:40:00,VALID,917.497,VALID,0,VALID,94.7701,VALID,-0.0679233,VALID,18.7495,VALID,30,VALID,0.0126065,
2006-02-28, 01:41:00,VALID,917.464,VALID,0,VALID,94.7829,VALID,-0.0679233,VALID,18.7629,VALID,30,VALID,0.274368,
2006-02-28, 01:42:00,VALID,917.459,VALID,0,VALID,94.8032,VALID,-0.0509425,VALID,18.753,VALID,30,VALID,0.0386814,
2006-02-28, 01:43:00,VALID,917.428,VALID,0,VALID,95.0499,VALID,-0.0509425,VALID,18.7597,VALID,31,VALID,0.0823864,
2006-02-28, 01:44:00,VALID,917.421,VALID,0,VALID,95.088,VALID,-0.0849042,VALID,18.7592,VALID,53,VALID,0.366443,
2006-02-28, 01:45:00,VALID,917.426,VALID,0,VALID,95.0855,VALID,-0.0849042,VALID,18.7724,VALID,56,VALID,0.172256,
2006-02-28, 01:46:00,VALID,917.436,VALID,0,VALID,95.0944,VALID,-0.0509425,VALID,18.7719,VALID,56,VALID,0.0449695,
2006-02-28, 01:47:00,VALID,917.423,VALID,0,VALID,95.0817,VALID,-0.0849042,VALID,18.7788,VALID,56,VALID,0.115734,
2006-02-28, 01:48:00,VALID,917.397,VALID,0,VALID,95.2788,VALID,-0.0849042,VALID,18.7855,VALID,53,VALID,0.518895,
2006-02-28, 01:49:00,VALID,917.393,VALID,0,VALID,94.9164,VALID,-0.0679233,VALID,18.759,VALID,18,VALID,0.5712,
2006-02-28, 01:50:00,VALID,917.4,VALID,0,VALID,94.9049,VALID,-0.0169808,VALID,18.711,VALID,18,VALID,0.596946,
2006-02-28, 01:51:00,VALID,917.404,VALID,0,VALID,95.2699,VALID,-0.0679233,VALID,18.6623,VALID,54,VALID,0.166735,
2006-02-28, 01:52:00,VALID,917.42,VALID,0,VALID,95.439,VALID,-0.0339617,VALID,18.6553,VALID,54,VALID,0.0520198,
2006-02-28, 01:53:00,VALID,917.422,VALID,0,VALID,95.4861,VALID,-0.0679233,VALID,18.6784,VALID,54,VALID,0,
2006-02-28, 01:54:00,VALID,917.406,VALID,0,VALID,95.5662,VALID,-0.0849042,VALID,18.6722,VALID,54,VALID,0.0734747,
2006-02-28, 01:55:00,VALID,917.366,VALID,0,VALID,95.5535,VALID,-0.0509425,VALID,18.6722,VALID,44,VALID,0.360709,
2006-02-28, 01:56:00,VALID,917.346,VALID,0,VALID,95.4238,VALID,-0.0849042,VALID,18.659,VALID,35,VALID,0.140451,
2006-02-28, 01:57:00,VALID,917.327,VALID,0,VALID,95.6081,VALID,-0.0679233,VALID,18.653,VALID,35,VALID,0,
2006-02-28, 01:58:00,VALID,917.302,VALID,0,VALID,95.7137,VALID,-0.0169808,VALID,18.656,VALID,35,VALID,0,
2006-02-28, 01:59:00,VALID,917.262,VALID,0,VALID,95.7874,VALID,-0.0849042,VALID,18.6593,VALID,35,VALID,0.0491616,
2006-02-28, 02:00:00,VALID,917.241,VALID,0,VALID,95.9769,VALID,-0.0339617,VALID,18.6719,VALID,50,VALID,0.253736,
2006-02-28, 02:01:00,VALID,917.219,VALID,0,VALID,96.0125,VALID,-0.101885,VALID,18.7209,VALID,60,VALID,0.032269,
2006-02-28, 02:02:00,VALID,917.213,VALID,0,VALID,95.5102,VALID,-0.0169808,VALID,18.737,VALID,32,VALID,0.484747,
2006-02-28, 02:03:00,VALID,917.225,VALID,0,VALID,95.715,VALID,-0.0509425,VALID,18.7532,VALID,11,VALID,0.680432,
2006-02-28, 02:04:00,VALID,917.222,VALID,0,VALID,95.8281,VALID,-0.0849042,VALID,18.8007,VALID,350,VALID,0.464063,
2006-02-28, 02:05:00,VALID,917.188,VALID,0,VALID,95.6196,VALID,0,VALID,18.8656,VALID,350,VALID,0.120722,
2006-02-28, 02:06:00,VALID,917.179,VALID,0,VALID,95.3373,VALID,-0.0679233,VALID,18.8785,VALID,350,VALID,0,
2006-02-28, 02:07:00,VALID,917.18,VALID,0,VALID,95.2877,VALID,-0.0509425,VALID,18.9074,VALID,350,VALID,0,
2006-02-28, 02:08:00,VALID,917.185,VALID,0,VALID,95.2088,VALID,-0.0339617,VALID,18.9302,VALID,350,VALID,0,
2006-02-28, 02:09:00,VALID,917.195,VALID,0,VALID,95.0855,VALID,-0.0679233,VALID,18.9436,VALID,350,VALID,0,
2006-02-28, 02:10:00,VALID,917.212,VALID,0,VALID,95.1631,VALID,-0.0509425,VALID,18.9725,VALID,328,VALID,0.427379,
2006-02-28, 02:11:00,VALID,917.204,VALID,0,VALID,95.1389,VALID,-0.0679233,VALID,19.063,VALID,320,VALID,0.55599,
2006-02-28, 02:12:00,VALID,917.18,VALID,0,VALID,94.3823,VALID,-0.0169808,VALID,19.1082,VALID,14,VALID,0.773793,
2006-02-28, 02:13:00,VALID,917.156,VALID,0,VALID,94.2005,VALID,-0.0679233,VALID,19.0724,VALID,14,VALID,0.803299,
2006-02-28, 02:14:00,VALID,917.164,VALID,0,VALID,94.5107,VALID,-0.0849042,VALID,19.0757,VALID,352,VALID,0.118459,
2006-02-28, 02:15:00,VALID,917.158,VALID,0,VALID,94.5209,VALID,-0.0679233,VALID,19.0824,VALID,352,VALID,0,
2006-02-28, 02:16:00,VALID,917.154,VALID,0,VALID,94.4065,VALID,-0.0509425,VALID,19.0759,VALID,352,VALID,0,
2006-02-28, 02:17:00,VALID,917.146,VALID,0,VALID,94.3645,VALID,-0.0339617,VALID,19.0794,VALID,352,VALID,0,
2006-02-28, 02:18:00,VALID,917.147,VALID,0,VALID,93.9589,VALID,-0.0509425,VALID,19.0565,VALID,352,VALID,0.0835193,
2006-02-28, 02:19:00,VALID,917.129,VALID,0,VALID,94.1483,VALID,-0.0849042,VALID,18.9824,VALID,352,VALID,0.218932,
2006-02-28, 02:20:00,VALID,917.113,VALID,0,VALID,94.4713,VALID,-0.0679233,VALID,18.9272,VALID,352,VALID,0.133345,
2006-02-28, 02:21:00,VALID,917.115,VALID,0,VALID,94.9838,VALID,-0.0679233,VALID,18.9046,VALID,352,VALID,0,
2006-02-28, 02:22:00,VALID,917.118,VALID,0,VALID,95.0982,VALID,-0.101885,VALID,18.8882,VALID,352,VALID,0.000181686,
2006-02-28, 02:23:00,VALID,917.117,VALID,0,VALID,95.4034,VALID,-0.0849042,VALID,18.9078,VALID,352,VALID,0.0671503,
2006-02-28, 02:24:00,VALID,917.115,VALID,0,VALID,95.1618,VALID,-0.0509425,VALID,18.9143,VALID,352,VALID,0,
2006-02-28, 02:25:00,VALID,917.098,VALID,0,VALID,95.3424,VALID,-0.0509425,VALID,18.9081,VALID,352,VALID,0,
2006-02-28, 02:26:00,VALID,917.085,VALID,0,VALID,95.3767,VALID,-0.0679233,VALID,18.9148,VALID,352,VALID,0,
2006-02-28, 02:27:00,VALID,917.054,VALID,0,VALID,95.4377,VALID,-0.0509425,VALID,18.9307,VALID,359,VALID,0.330664,
2006-02-28, 02:28:00,VALID,917.018,VALID,0,VALID,94.91,VALID,-0.0679233,VALID,18.8954,VALID,18,VALID,0.648098,
2006-02-28, 02:29:00,VALID,917.004,VALID,0,VALID,95.2063,VALID,-0.0339617,VALID,18.8368,VALID,18,VALID,0.450707,
2006-02-28, 02:30:00,VALID,916.978,VALID,0,VALID,95.6768,VALID,-0.0679233,VALID,18.8402,VALID,18,VALID,0.0218349,
2006-02-28, 02:31:00,VALID,916.946,VALID,0,VALID,95.7912,VALID,-0.0849042,VALID,18.8402,VALID,18,VALID,0.116824,
2006-02-28, 02:32:00,VALID,916.935,VALID,0,VALID,95.851,VALID,-0.101885,VALID,18.8661,VALID,18,VALID,0.00925164,
2006-02-28, 02:33:00,VALID,916.913,VALID,0,VALID,95.7404,VALID,-0.0849042,VALID,18.876,VALID,18,VALID,0,
2006-02-28, 02:34:00,VALID,916.87,VALID,0,VALID,95.7912,VALID,-0.0849042,VALID,18.8564,VALID,18,VALID,0,
2006-02-28, 02:35:00,VALID,916.85,VALID,0,VALID,96.0774,VALID,-0.0509425,VALID,18.8989,VALID,25,VALID,0.260901,
2006-02-28, 02:36:00,VALID,916.839,VALID,0,VALID,95.4708,VALID,-0.0679233,VALID,18.9178,VALID,28,VALID,0.296494,
2006-02-28, 02:37:00,VALID,916.816,VALID,0,VALID,95.0105,VALID,-0.0849042,VALID,18.8852,VALID,28,VALID,0.463356,
2006-02-28, 02:38:00,VALID,916.798,VALID,0,VALID,95.2127,VALID,-0.0849042,VALID,18.8693,VALID,25,VALID,0.528409,
2006-02-28, 02:39:00,VALID,916.831,VALID,0,VALID,95.3589,VALID,-0.0849042,VALID,18.8409,VALID,12,VALID,0.606771,
2006-02-28, 02:40:00,VALID,916.831,VALID,0,VALID,95.5064,VALID,-0.0679233,VALID,18.8273,VALID,10,VALID,0.52168,
2006-02-28, 02:41:00,VALID,916.819,VALID,0,VALID,95.7378,VALID,-0.0679233,VALID,18.8144,VALID,7,VALID,0.333984,
2006-02-28, 02:42:00,VALID,916.809,VALID,0,VALID,95.9273,VALID,-0.0679233,VALID,18.8432,VALID,6,VALID,0.293555,
2006-02-28, 02:43:00,VALID,916.795,VALID,0,VALID,95.8828,VALID,-0.0849042,VALID,18.8758,VALID,6,VALID,0.451308,
2006-02-28, 02:44:00,VALID,916.816,VALID,0,VALID,95.687,VALID,-0.0849042,VALID,18.876,VALID,6,VALID,0.372093,
2006-02-28, 02:45:00,VALID,916.815,VALID,0,VALID,95.3386,VALID,-0.0509425,VALID,18.8504,VALID,6,VALID,0.587536,
2006-02-28, 02:46:00,VALID,916.792,VALID,0,VALID,95.3576,VALID,-0.0679233,VALID,18.7917,VALID,7,VALID,0.82431,
2006-02-28, 02:47:00,VALID,916.772,VALID,0,VALID,95.7811,VALID,-0.0849042,VALID,18.7627,VALID,20,VALID,1.00963,
2006-02-28, 02:48:00,VALID,916.767,VALID,0,VALID,95.7417,VALID,-0.0679233,VALID,18.714,VALID,18,VALID,0.393821,
2006-02-28, 02:49:00,VALID,916.761,VALID,0,VALID,96.1244,VALID,-0.0679233,VALID,18.7202,VALID,17,VALID,0.132631,
2006-02-28, 02:50:00,VALID,916.78,VALID,0,VALID,96.4398,VALID,-0.0849042,VALID,18.7853,VALID,17,VALID,0.211328,
2006-02-28, 02:51:00,VALID,916.755,VALID,0,VALID,96.3698,VALID,-0.0849042,VALID,18.8007,VALID,17,VALID,0.0161458,
2006-02-28, 02:52:00,VALID,916.748,VALID,0,VALID,96.216,VALID,-0.0679233,VALID,18.8296,VALID,17,VALID,0,
2006-02-28, 02:53:00,VALID,916.748,VALID,0,VALID,95.9426,VALID,-0.101885,VALID,18.8502,VALID,17,VALID,0,
2006-02-28, 02:54:00,VALID,916.732,VALID,0,VALID,95.247,VALID,-0.0509425,VALID,18.8139,VALID,17,VALID,0.207386,
2006-02-28, 02:55:00,VALID,916.699,VALID,0,VALID,95.3335,VALID,-0.101885,VALID,18.7947,VALID,17,VALID,0.386905,
2006-02-28, 02:56:00,VALID,916.686,VALID,0,VALID,95.4695,VALID,-0.0849042,VALID,18.7599,VALID,17,VALID,0.386991,
2006-02-28, 02:57:00,VALID,916.666,VALID,0,VALID,95.659,VALID,-0.0679233,VALID,18.7207,VALID,18,VALID,0.634859,
2006-02-28, 02:58:00,VALID,916.654,VALID,0,VALID,95.5725,VALID,-0.0679233,VALID,18.6623,VALID,28,VALID,0.638207,
2006-02-28, 02:59:00,VALID,916.668,VALID,0,VALID,96.1066,VALID,-0.0849042,VALID,18.6304,VALID,27,VALID,0.329901,
2006-02-28, 03:00:00,VALID,916.655,VALID,0,VALID,96.4881,VALID,-0.101885,VALID,18.6535,VALID,27,VALID,0,
2006-02-28, 03:01:00,VALID,916.65,VALID,0,VALID,96.6598,VALID,-0.101885,VALID,18.6597,VALID,27,VALID,0,
2006-02-28, 03:02:00,VALID,916.626,VALID,0,VALID,96.4385,VALID,-0.0849042,VALID,18.6694,VALID,27,VALID,0.201758,
2006-02-28, 03:03:00,VALID,916.618,VALID,0,VALID,96.2032,VALID,-0.0509425,VALID,18.6498,VALID,25,VALID,0.419212,
2006-02-28, 03:04:00,VALID,916.625,VALID,0,VALID,95.9985,VALID,-0.118866,VALID,18.6364,VALID,354,VALID,0.572129,
2006-02-28, 03:05:00,VALID,916.622,VALID,0,VALID,96.0265,VALID,-0.101885,VALID,18.6593,VALID,17,VALID,0.733984,
2006-02-28, 03:06:00,VALID,916.599,VALID,0,VALID,96.0214,VALID,-0.0849042,VALID,18.6302,VALID,27,VALID,0.809593,
2006-02-28, 03:07:00,VALID,916.555,VALID,0,VALID,96.2452,VALID,-0.0849042,VALID,18.6595,VALID,53,VALID,0.667597,
2006-02-28, 03:08:00,VALID,916.552,VALID,0,VALID,96.0596,VALID,0.0339617,VALID,18.6481,VALID,50,VALID,0.199505,
2006-02-28, 03:09:00,VALID,916.532,VALID,0,VALID,96.1282,VALID,-0.0169808,VALID,18.6775,VALID,37,VALID,0.0433239,
2006-02-28, 03:10:00,VALID,916.497,VALID,0,VALID,96.1829,VALID,-0.0169808,VALID,18.6904,VALID,37,VALID,0.117188,
2006-02-28, 03:11:00,VALID,916.477,VALID,0,VALID,96.1931,VALID,-0.0169808,VALID,18.7128,VALID,35,VALID,0.284598,
2006-02-28, 03:12:00,VALID,916.481,VALID,0,VALID,96.1905,VALID,0.0339617,VALID,18.7486,VALID,3,VALID,0.348028,
2006-02-28, 03:13:00,VALID,916.457,VALID,0,VALID,95.9324,VALID,0.0509425,VALID,18.7642,VALID,3,VALID,0.333891,
2006-02-28, 03:14:00,VALID,916.427,VALID,0,VALID,95.5484,VALID,0.0169808,VALID,18.7652,VALID,3,VALID,0.105386,
2006-02-28, 03:15:00,VALID,916.391,VALID,0,VALID,95.8624,VALID,0,VALID,18.7714,VALID,3,VALID,0.0431548,
2006-02-28, 03:16:00,VALID,916.359,VALID,0,VALID,96.1028,VALID,0.0339617,VALID,18.7908,VALID,3,VALID,0.150746,
2006-02-28, 03:17:00,VALID,916.35,VALID,0,VALID,95.7823,VALID,0.0339617,VALID,18.797,VALID,3,VALID,0.252344,
2006-02-28, 03:18:00,VALID,916.359,VALID,0,VALID,95.6132,VALID,0,VALID,18.7712,VALID,3,VALID,0.0619284,
2006-02-28, 03:19:00,VALID,916.345,VALID,0,VALID,95.6908,VALID,-0.0169808,VALID,18.7712,VALID,3,VALID,0,
2006-02-28, 03:20:00,VALID,916.316,VALID,0,VALID,95.5535,VALID,0.0169808,VALID,18.7615,VALID,3,VALID,0,
2006-02-28, 03:21:00,VALID,916.293,VALID,0,VALID,95.7289,VALID,0,VALID,18.7781,VALID,3,VALID,0.0306784,
2006-02-28, 03:22:00,VALID,916.298,VALID,0,VALID,95.7264,VALID,0,VALID,18.797,VALID,334,VALID,0.342035,
2006-02-28, 03:23:00,VALID,916.291,VALID,0,VALID,95.7658,VALID,0.0339617,VALID,18.8169,VALID,306,VALID,0.00971799,
2006-02-28, 03:24:00,VALID,916.28,VALID,0,VALID,95.6208,VALID,0.0339617,VALID,18.8457,VALID,306,VALID,0,
2006-02-28, 03:25:00,VALID,916.243,VALID,0,VALID,95.5446,VALID,0,VALID,18.8942,VALID,308,VALID,0.0508721,
2006-02-28, 03:26:00,VALID,916.225,VALID,0,VALID,95.3754,VALID,0,VALID,18.9295,VALID,341,VALID,0.651296,
2006-02-28, 03:27:00,VALID,916.2,VALID,0,VALID,94.5044,VALID,0,VALID,18.9459,VALID,14,VALID,0.989281,
2006-02-28, 03:28:00,VALID,916.217,VALID,0,VALID,94.5336,VALID,0,VALID,18.9171,VALID,25,VALID,0.376189,
2006-02-28, 03:29:00,VALID,916.223,VALID,0,VALID,94.9952,VALID,0,VALID,18.9265,VALID,24,VALID,0.455078,
2006-02-28, 03:30:00,VALID,916.219,VALID,0,VALID,95.0105,VALID,0,VALID,18.9616,VALID,12,VALID,0.500355,
2006-02-28, 03:31:00,VALID,916.169,VALID,0,VALID,94.6633,VALID,0.0169808,VALID,18.9643,VALID,4,VALID,0.919531,
2006-02-28, 03:32:00,VALID,916.155,VALID,0,VALID,94.6443,VALID,0.0509425,VALID,18.9489,VALID,11,VALID,0.949673,
2006-02-28, 03:33:00,VALID,916.176,VALID,0,VALID,94.9901,VALID,0,VALID,18.9651,VALID,11,VALID,0.584766,